Powrót do katalogu

LAGEOS 1 AKM

AktywnyMEO
NORAD 8822·ROCKET BODY·🇺🇸 United States

Wystrzelony May 4, 1976 z Vandenberg Space Force Base

Loading…

Następne Przeloty (najbliższe 24 godziny)

TLE

ŚwieżeSource: Space-Track

Epoka: Sep 8, 2026, 08:49 UTC

1 08822U 76039C   26251.36743995 -.00000001  00000-0  00000-0 0  9999
2 08822 109.8181 212.5778 0045515 279.0661 238.5087  6.38871772174467

Śledź LAGEOS 1 AKM w czasie rzeczywistym z AllMySat

Download on the App Store